Torna al catalogo

COSMOS 2447

GLONASS

AttivoNavigazioneMEO
NORAD 33466·PAYLOAD·🇷🇺 Russia

Lanciato Dec 25, 2008 da Baikonur Cosmodrome

Loading…

Prossimi Passaggi (prossime 24 ore)

TLE

AggiornatoSource: Space-Track

Epoca: Sep 13, 2026, 22:51 UTC

1 33466U 08067A   26256.95248289 -.00000015  00000-0  00000-0 0  9998
2 33466  64.8779  66.3016 0006465 259.7136  97.5255  2.13107608137856

Traccia COSMOS 2447 in tempo reale con AllMySat

Download on the App Store